Date String (YYYY-MM-DD hh:mm:ss) UTC,Instrument flags,Ambient pressure (hPa),Sample flow (lpm),Bypass flow (lpm),Sample temperature (°C),Ambient temperature (°C),ASC tube jacket temperature (°C),LED temperature (°C),Box temperature (°C),Sample RH (%),Span deviation,Mass concentration (μg/m³),Mass concentration (μg/m³),Mass concentration (μg/m³)
DateTimeUTC,F1_M11,P_M11,Q1_M11,Q2_M11,T1_M11,T2_M11,T3_M11,T4_M11,T5_M11,U1_M11,ZSPAN_M11,X0_M11,X2_M11,X1_M11
2023-04-13 12:00:00,,0817.6,5.00,0.00,28.7,27.0,00.0,37.0,30.2,11.1,0000.0,0013.08,0004.44,0002.49
2023-04-13 12:01:00,,0817.6,5.00,0.00,28.7,27.0,00.0,37.0,30.2,11.1,0000.0,0012.60,0004.41,0002.49
2023-04-13 12:02:00,,0817.6,5.00,0.00,28.7,27.0,00.0,37.0,30.2,11.1,0000.0,0012.21,0004.34,0002.48
2023-04-13 12:03:00,,0817.6,5.00,0.00,28.7,26.9,00.0,37.0,30.2,11.1,0000.0,0011.87,0004.33,0002.47
2023-04-13 12:04:00,,0817.6,5.00,0.00,28.7,26.9,00.0,37.0,30.2,11.0,0000.0,0011.59,0004.25,0002.46
2023-04-13 12:05:00,,0817.6,5.00,0.00,28.6,26.9,00.0,37.0,30.2,11.1,0000.0,0011.71,0004.24,0002.45
2023-04-13 12:06:00,,0817.6,5.01,0.00,28.6,26.9,00.0,37.0,30.2,11.1,0000.0,0011.74,0004.25,0002.45
2023-04-13 12:07:00,,0817.5,5.00,0.00,28.6,26.9,00.0,37.0,30.2,11.0,0000.0,0011.95,0004.26,0002.47
2023-04-13 12:08:00,,0817.6,5.00,0.00,28.6,26.9,00.0,37.0,30.2,11.1,0000.0,0011.14,0004.22,0002.48
2023-04-13 12:09:00,,0817.5,5.00,0.00,28.6,26.9,00.0,37.0,30.2,11.0,0000.0,0011.84,0004.23,0002.48
2023-04-13 12:10:00,,0817.6,4.99,0.00,28.6,26.9,00.0,37.0,30.2,11.1,0000.0,0012.84,0004.23,0002.48
2023-04-13 12:11:00,,0817.6,4.99,0.00,28.6,26.9,00.0,37.0,30.1,11.1,0000.0,0013.90,0004.28,0002.50
2023-04-13 12:12:00,,0817.6,5.00,0.00,28.6,26.9,00.0,37.0,30.1,11.1,0000.0,0014.88,0004.29,0002.51
2023-04-13 12:13:00,,0817.7,5.00,0.00,28.6,26.9,00.0,37.0,30.1,11.1,0000.0,0015.16,0004.30,0002.53
2023-04-13 12:14:00,,0817.6,5.00,0.00,28.6,26.9,00.0,37.0,30.1,11.1,0000.0,0015.28,0004.28,0002.54
2023-04-13 12:15:00,,0817.6,5.00,0.00,28.6,26.9,00.0,37.0,30.1,11.2,0000.0,0015.00,0004.31,0002.54
2023-04-13 12:16:00,,0817.6,5.00,0.00,28.6,26.9,00.0,37.0,30.1,11.1,0000.0,0015.06,0004.32,0002.55
2023-04-13 12:17:00,,0817.6,5.00,0.00,28.6,26.9,00.0,37.0,30.1,11.1,0000.0,0015.45,0004.28,0002.55
2023-04-13 12:18:00,,0817.6,5.00,0.00,28.6,26.9,00.0,37.0,30.1,11.1,0000.0,0016.25,0004.27,0002.54
2023-04-13 12:19:00,,0817.6,5.00,0.00,28.6,26.9,00.0,37.0,30.1,11.1,0000.0,0016.91,0004.24,0002.52
2023-04-13 12:20:00,,0817.6,5.01,0.00,28.6,26.9,00.0,37.0,30.1,11.1,0000.0,0016.62,0004.24,0002.52
2023-04-13 12:21:00,,0817.6,5.00,0.00,28.6,26.9,00.0,37.0,30.1,11.2,0000.0,0015.58,0004.25,0002.52
2023-04-13 12:22:00,,0817.6,5.00,0.00,28.6,26.8,00.0,37.0,30.1,11.2,0000.0,0014.80,0004.23,0002.51
2023-04-13 12:23:00,,0817.6,5.00,0.00,28.5,26.8,00.0,36.9,30.1,11.2,0000.0,0014.28,0004.26,0002.50
2023-04-13 12:24:00,,0817.6,5.00,0.00,28.5,26.8,00.0,36.9,30.1,11.2,0000.0,0014.20,0004.28,0002.50
2023-04-13 12:25:00,,0817.6,5.00,0.00,28.5,26.8,00.0,36.9,30.1,11.3,0000.0,0014.00,0004.28,0002.50
2023-04-13 12:26:00,,0817.6,4.99,0.00,28.5,26.8,00.0,36.9,30.1,11.3,0000.0,0013.92,0004.23,0002.50
2023-04-13 12:27:00,,0817.6,5.00,0.00,28.5,26.8,00.0,36.9,30.1,11.2,0000.0,0013.87,0004.25,0002.48
2023-04-13 12:28:00,,0817.7,5.00,0.00,28.5,26.8,00.0,36.9,30.0,11.2,0000.0,0013.88,0004.25,0002.48
2023-04-13 12:29:00,,0817.7,5.00,0.00,28.5,26.8,00.0,36.9,30.0,11.2,0000.0,0012.98,0004.23,0002.49
2023-04-13 12:30:00,,0817.8,5.00,0.00,28.5,26.8,00.0,36.9,30.0,11.1,0000.0,0012.68,0004.23,0002.48
2023-04-13 12:31:00,,0817.7,5.00,0.00,28.5,26.8,00.0,36.9,30.0,11.2,0000.0,0013.19,0004.23,0002.46
2023-04-13 12:32:00,,0817.7,5.00,0.00,28.5,26.8,00.0,36.9,30.0,11.2,0000.0,0013.37,0004.29,0002.46
2023-04-13 12:33:00,,0817.7,5.00,0.00,28.5,26.8,00.0,36.9,30.0,11.2,0000.0,0013.49,0004.33,0002.46
2023-04-13 12:34:00,,0817.8,5.00,0.00,28.5,26.8,00.0,36.9,30.0,11.3,0000.0,0012.57,0004.29,0002.46
2023-04-13 12:35:00,,0817.8,4.99,0.00,28.5,26.8,00.0,36.9,30.0,11.3,0000.0,0012.30,0004.26,0002.47
2023-04-13 12:36:00,,0817.8,5.01,0.00,28.5,26.7,00.0,36.9,30.0,11.3,0000.0,0012.05,0004.21,0002.47
2023-04-13 12:37:00,,0817.8,5.01,0.00,28.4,26.7,00.0,36.9,30.0,11.3,0000.0,0013.02,0004.22,0002.47
2023-04-13 12:38:00,,0817.8,5.01,0.00,28.4,26.7,00.0,36.9,30.0,11.3,0000.0,0012.79,0004.22,0002.48
2023-04-13 12:39:00,,0817.7,5.01,0.00,28.4,26.7,00.0,36.8,29.9,11.4,0000.0,0012.42,0004.23,0002.48
2023-04-13 12:40:00,,0817.7,5.00,0.00,28.4,26.7,00.0,36.8,30.0,11.4,0000.0,0012.32,0004.24,0002.49
2023-04-13 12:41:00,,0817.6,5.00,0.00,28.4,26.8,00.0,36.8,30.0,11.5,0000.0,0012.00,0004.27,0002.50
2023-04-13 12:42:00,,0817.6,5.00,0.00,28.4,26.8,00.0,36.8,30.0,11.5,0000.0,0011.86,0004.25,0002.49
2023-04-13 12:43:00,,0817.6,4.99,0.00,28.4,26.8,00.0,36.8,30.0,11.5,0000.0,0011.54,0004.18,0002.48
2023-04-13 12:44:00,,0817.6,5.00,0.00,28.4,26.8,00.0,36.8,30.0,11.6,0000.0,0011.53,0004.11,0002.48
2023-04-13 12:45:00,,0817.6,5.00,0.00,28.4,26.8,00.0,36.8,30.0,11.6,0000.0,0011.64,0004.08,0002.47
2023-04-13 12:46:00,,0817.5,5.00,0.00,28.4,26.8,00.0,36.8,30.0,11.6,0000.0,0011.61,0004.06,0002.45
2023-04-13 12:47:00,,0817.5,5.00,0.00,28.4,26.8,00.0,36.8,30.0,11.7,0000.0,0011.64,0004.06,0002.44
2023-04-13 12:48:00,,0817.5,5.00,0.00,28.4,26.8,00.0,36.8,30.0,11.6,0000.0,0012.16,0004.04,0002.44
2023-04-13 12:49:00,,0817.5,5.00,0.00,28.4,26.8,00.0,36.8,30.0,11.7,0000.0,0011.90,0003.96,0002.43
2023-04-13 12:50:00,,0817.5,5.00,0.00,28.4,26.8,00.0,36.8,29.9,11.7,0000.0,0011.98,0003.90,0002.43
2023-04-13 12:51:00,,0817.5,5.00,0.00,28.4,26.8,00.0,36.8,30.0,11.7,0000.0,0011.77,0003.86,0002.41
2023-04-13 12:52:00,,0817.5,4.99,0.00,28.4,26.7,00.0,36.8,29.9,11.8,0000.0,0011.67,0003.83,0002.41
2023-04-13 12:53:00,,0817.5,5.00,0.00,28.4,26.7,00.0,36.8,29.9,11.8,0000.0,0011.82,0003.83,0002.41
2023-04-13 12:54:00,,0817.5,5.00,0.00,28.4,26.7,00.0,36.8,29.9,11.7,0000.0,0011.74,0003.82,0002.43
2023-04-13 12:55:00,,0817.5,5.00,0.00,28.4,26.7,00.0,36.8,29.9,11.8,0000.0,0011.60,0003.82,0002.44
2023-04-13 12:56:00,,0817.5,5.00,0.00,28.4,26.7,00.0,36.8,29.9,11.8,0000.0,0011.37,0003.87,0002.46
2023-04-13 12:57:00,,0817.5,5.01,0.00,28.4,26.7,00.0,36.8,30.0,11.7,0000.0,0011.35,0003.88,0002.46
2023-04-13 12:58:00,,0817.6,5.00,0.00,28.4,26.7,00.0,36.8,29.9,11.7,0000.0,0012.10,0003.89,0002.46
2023-04-13 12:59:00,,0817.6,5.01,0.00,28.4,26.7,00.0,36.8,30.0,11.6,0000.0,0011.58,0003.90,0002.46
